GEFSSGP_500_meanwind_030.txt.gz
Wind_Speed
11 13 13 11 13 17 10 1 3 4 6 6 6 7 8 7 7 7 7 5 4 3 2 2 2 3 4 5 6 7 8 8 8 9 9 9 10 10 11 11 12 12 12 12 11 10 9 8 8
9 10 10 10 14 14 6 3 3 3 2 3 3 4 5 5 6 6 5 4 4 3 3 1 1 2 4 5 7 8 8 8 9 9 9 9 9 9 10 11 11 12 12 12 12 11 10 9 8
8 8 7 7 15 12 6 4 3 3 3 2 0 1 2 2 4 4 5 5 4 4 3 2 1 1 3 5 6 7 8 9 9 9 9 8 8 8 10 10 10 11 11 11 11 11 11 10 9
8 7 6 10 10 7 5 4 5 4 3 3 4 3 3 3 4 5 6 6 5 5 5 4 3 3 4 4 5 7 8 9 10 9 9 9 8 8 9 10 11 11 10 10 10 10 11 10 9
9 9 7 6 3 2 5 2 4 4 3 3 6 6 7 7 8 9 9 9 8 8 8 7 7 7 6 6 6 7 8 9 10 10 10 10 9 9 10 10 11 11 10 9 9 9 10 10 10
12 11 7 1 1 5 9 4 2 5 4 3 4 5 8 9 10 11 12 13 12 11 11 10 10 10 9 9 8 8 9 9 10 11 11 12 12 12 13 13 12 12 11 9 9 8 9 9 10
13 12 8 1 4 8 13 9 5 6 5 4 5 6 5 7 10 11 13 14 14 13 13 12 12 12 12 11 11 10 10 11 11 12 13 14 15 16 16 16 16 14 12 11 10 9 8 8 9
11 10 8 2 5 11 16 12 9 7 8 6 7 8 5 6 8 9 11 13 14 13 13 13 13 14 14 13 13 12 12 13 13 14 15 16 17 17 18 18 17 16 15 14 12 11 10 9 9
11 11 8 3 6 10 15 9 9 10 11 9 9 10 8 8 8 9 10 12 13 13 13 13 14 15 16 15 15 14 14 15 15 16 16 17 17 18 18 18 17 17 17 16 16 14 13 12 11
13 13 8 9 12 13 12 8 10 9 10 12 12 12 11 10 10 10 10 12 13 13 13 14 15 16 16 16 16 16 16 17 17 17 18 18 19 19 19 19 19 18 18 18 18 18 18 16 14
16 17 16 16 17 17 13 11 12 8 10 14 15 15 14 14 14 13 13 14 14 15 15 15 16 17 18 18 18 19 19 19 20 20 20 20 20 20 20 21 21 21 21 21 21 21 21 21 20
21 21 21 19 18 18 17 16 15 14 16 20 19 19 18 18 19 18 17 17 17 18 19 19 19 20 21 21 22 22 22 23 23 23 23 24 24 24 24 24 24 25 25 25 24 24 24 25 25
26 25 25 23 22 22 22 21 20 20 22 25 24 24 24 24 24 23 22 22 22 22 23 23 23 24 25 25 26 26 26 27 27 27 27 28 28 28 29 29 29 30 29 29 28 28 27 28 28
30 30 28 26 26 27 28 26 24 24 27 29 28 28 28 28 28 28 28 27 27 27 27 27 28 28 29 29 29 30 30 30 31 31 30 31 32 32 33 33 34 34 34 33 33 33 32 31 31
33 31 29 28 29 31 32 30 27 26 28 31 32 31 31 32 32 32 33 32 32 32 32 32 32 33 33 33 34 34 34 34 34 35 35 35 36 37 37 38 37 38 37 37 37 36 36 36 36
33 32 32 27 28 31 33 32 26 25 31 35 34 33 33 36 36 36 37 37 37 37 37 36 37 37 37 38 38 38 38 38 39 39 39 39 39 40 41 41 41 41 41 40 40 40 40 39 39
29 29 27 21 26 32 33 30 24 28 34 37 37 37 38 42 42 42 41 42 42 42 42 42 42 42 42 41 41 40 41 41 42 42 42 42 42 43 44 44 43 44 44 44 43 42 42 42 43
16 15 15 14 22 30 33 28 24 28 37 41 41 42 43 44 46 46 44 44 45 45 45 45 45 45 45 43 42 42 42 42 43 44 45 46 46 45 46 46 46 45 45 44 45 44 44 44 43
23 23 22 20 25 35 36 32 26 27 37 42 43 43 43 43 44 42 41 42 43 44 45 45 45 45 45 43 42 42 42 43 43 44 45 47 48 48 48 48 47 47 46 45 45 44 45 44 43
17 18 20 20 25 31 31 28 24 27 33 37 38 37 39 40 40 41 40 38 39 40 42 42 43 43 44 44 43 42 42 43 43 45 46 48 49 50 51 50 49 48 48 46 45 45 46 44 44
12 13 17 21 24 25 25 25 23 26 31 35 37 37 38 38 39 40 40 40 39 39 40 41 42 43 43 44 44 44 44 45 45 46 48 49 50 52 51 51 49 48 48 47 46 46 46 45 44
15 19 24 25 26 26 24 26 22 23 30 36 38 37 34 34 36 38 39 40 40 40 41 42 43 44 45 46 46 47 47 47 47 48 49 50 51 51 52 51 50 49 48 46 45 45 44 44 43
20 22 24 24 24 24 20 23 21 20 28 35 36 35 33 35 37 38 38 38 38 39 40 40 41 42 44 45 46 47 47 47 48 49 49 51 52 52 52 51 51 50 48 46 44 44 43 43 41
18 19 19 18 18 18 17 21 19 22 27 32 36 39 41 40 39 37 36 35 35 36 37 37 38 39 40 42 43 45 46 47 48 49 50 51 52 52 52 52 51 49 47 46 45 44 43 42 40
15 16 15 12 11 16 19 19 18 23 27 30 34 38 40 38 37 35 34 33 33 33 33 34 35 36 38 39 41 43 44 46 47 49 50 51 52 53 52 51 50 49 48 47 46 45 41 39 37
14 14 14 15 14 15 17 20 23 29 31 31 32 33 36 37 38 37 37 36 36 36 36 37 37 38 38 40 41 42 44 46 48 49 50 51 52 52 51 51 51 49 47 46 45 43 40 38 37
13 12 13 16 16 15 13 14 24 29 32 34 35 36 38 39 40 40 40 40 40 40 40 40 40 41 41 42 43 44 45 47 48 49 50 51 51 51 50 50 48 46 45 43 41 39 38 37 36
12 13 15 17 18 18 14 15 23 30 35 38 40 42 43 43 43 43 43 43 42 42 43 43 43 43 43 44 44 45 46 47 47 48 48 48 49 49 48 46 44 43 42 40 38 37 36 34 35
14 16 17 20 22 23 23 19 20 29 36 39 41 42 42 43 43 43 43 44 44 44 44 44 44 44 44 45 45 45 45 45 45 45 45 45 44 43 42 42 40 39 37 36 36 34 33 33 33
14 17 19 22 22 22 24 20 19 27 33 38 40 41 41 41 42 41 41 41 42 43 43 43 44 44 43 43 43 43 42 41 40 40 40 39 38 38 38 38 38 37 35 34 34 33 31 32 32

GEFSSGP_500_meanwind_036.txt.gz
Wind_Speed
12 11 10 9 7 6 9 11 10 7 7 9 8 8 8 8 5 4 6 5 4 5 5 5 6 6 7 8 8 8 8 9 10 11 11 11 11 11 12 13 14 14 15 15 14 14 13 11 10
11 9 9 8 6 7 9 9 7 7 6 6 6 6 7 7 5 4 5 4 4 4 5 5 5 5 6 7 7 7 8 8 9 10 10 11 10 11 11 12 13 14 14 14 14 14 13 12 11
9 7 7 6 6 8 8 8 6 5 5 4 4 4 5 5 4 4 4 5 5 5 5 6 6 7 7 8 8 8 8 8 8 9 9 10 10 11 11 12 12 13 14 14 13 13 13 13 12
9 6 4 4 5 8 7 7 6 5 4 3 3 2 2 2 3 4 4 5 6 7 7 7 8 9 9 10 10 10 10 9 9 9 10 10 11 11 12 13 14 14 15 14 13 13 13 13 12
10 6 4 5 3 7 7 7 7 8 6 5 5 5 4 3 5 6 6 6 7 8 9 9 10 11 11 12 12 12 12 11 11 11 11 11 12 13 13 14 15 16 16 14 14 13 13 12 12
11 8 7 7 4 3 3 6 8 9 8 7 5 6 6 5 6 8 9 9 9 10 11 11 12 12 13 13 13 14 14 13 13 13 13 13 14 14 14 15 16 16 15 14 14 14 13 12 12
13 10 9 8 5 3 1 5 10 11 10 9 7 7 8 6 5 7 10 11 10 10 11 11 11 12 12 12 13 14 14 15 15 15 15 15 15 15 15 15 15 15 15 14 14 14 14 13 13
15 13 12 11 6 2 1 5 8 10 11 10 9 10 10 9 6 5 8 11 11 11 11 12 11 11 12 12 13 14 15 15 16 16 16 16 15 16 16 16 16 16 15 15 14 14 15 15 15
18 17 15 14 9 4 1 4 8 10 12 11 11 12 11 12 10 6 7 10 11 11 11 12 12 12 12 13 14 14 15 15 16 17 17 17 17 17 17 17 17 17 17 16 16 16 16 16 17
19 20 18 17 13 9 5 5 8 13 14 13 12 12 12 13 13 10 10 11 12 13 13 13 13 13 14 15 15 16 16 17 17 17 18 18 19 19 19 19 18 18 18 18 18 18 18 18 19
20 21 22 20 15 11 9 9 12 15 19 19 18 16 15 16 18 17 16 15 16 16 17 17 17 17 17 18 19 19 19 19 19 19 19 20 21 21 21 21 21 21 21 21 21 21 20 21 21
22 24 25 22 18 14 11 12 15 18 22 24 24 23 22 21 21 23 23 21 21 20 20 21 22 22 21 22 23 23 22 22 22 22 22 23 23 23 24 24 25 24 24 24 24 24 24 24 24
24 25 25 23 20 17 15 15 18 20 24 27 29 28 28 27 26 26 26 26 26 25 23 24 26 27 26 25 26 27 26 26 26 26 26 26 27 27 27 27 28 28 28 28 28 28 27 27 27
28 27 25 22 21 20 21 21 22 22 26 30 32 33 33 32 29 28 28 28 29 29 29 28 28 30 31 30 30 30 29 29 29 29 30 30 30 31 32 31 32 32 32 31 31 31 30 30 29
31 28 26 23 23 24 26 27 26 26 28 31 33 35 36 36 34 33 32 32 33 33 34 34 34 34 34 35 35 34 33 32 32 32 32 33 33 34 35 35 35 35 35 34 34 33 33 32 31
31 30 28 27 27 27 29 29 27 26 27 28 31 35 37 37 36 36 36 37 36 35 36 38 37 35 35 36 37 37 36 36 35 34 34 35 35 36 36 37 38 38 37 37 36 36 36 35 34
31 30 29 28 28 29 30 30 27 26 25 26 29 32 34 36 37 37 38 38 37 36 36 35 35 35 36 37 37 36 36 36 36 36 37 37 36 37 37 38 39 40 39 39 39 38 38 37 36
28 27 25 23 24 26 27 27 25 23 24 26 29 31 33 34 35 36 37 37 37 37 36 34 35 36 36 36 35 36 36 36 37 38 38 38 38 38 38 38 40 41 41 41 39 39 39 36 36
23 22 20 19 21 22 23 23 24 24 27 29 31 32 33 34 33 34 35 36 37 37 37 38 38 38 37 37 37 37 36 37 38 39 39 39 40 40 40 40 41 42 42 42 40 39 38 36 37
17 19 21 23 24 24 25 26 27 28 30 32 32 33 33 31 31 32 32 33 36 38 39 40 40 39 39 40 39 38 38 38 38 39 40 40 41 41 41 41 42 42 42 42 40 39 38 37 37
16 19 22 24 25 27 29 29 29 30 32 32 33 32 30 28 28 30 31 33 35 37 39 39 38 38 38 39 40 40 39 39 38 38 39 39 40 41 41 41 42 42 42 41 41 41 40 39 38
17 19 20 22 24 28 31 32 30 30 30 30 30 28 27 26 28 29 31 32 33 34 36 37 37 37 38 38 39 39 39 39 38 38 38 39 39 40 40 41 41 43 44 43 42 41 41 41 41
17 17 18 18 19 22 26 28 24 24 24 25 25 25 25 26 27 28 29 30 32 34 35 36 36 37 38 38 39 39 39 38 38 37 37 37 37 38 39 40 41 42 43 43 42 43 43 43 43
13 13 14 15 15 17 19 20 17 17 17 18 19 21 23 24 25 27 29 31 33 34 35 36 37 38 39 40 41 41 41 41 40 39 37 37 37 38 39 40 40 41 43 43 44 44 44 44 43
9 9 9 10 12 13 15 17 15 15 16 16 17 18 22 24 26 28 28 29 31 33 34 35 36 38 39 40 41 42 43 43 43 42 41 40 40 40 40 41 41 42 43 44 44 44 44 43 42
7 8 7 7 7 8 13 15 15 16 18 19 20 22 24 26 26 27 27 28 31 33 34 36 37 38 39 40 40 41 42 43 44 44 44 44 43 43 43 43 43 44 44 44 44 44 44 43 42
6 6 7 7 6 7 10 15 17 19 22 23 24 25 25 26 26 27 29 30 32 34 36 37 39 39 40 40 40 41 42 43 43 44 45 45 45 45 44 44 44 44 44 44 43 43 43 42 41
8 7 7 8 10 9 8 12 18 21 23 25 26 27 28 29 30 31 32 33 34 35 37 39 40 40 40 40 41 40 40 40 41 42 43 44 44 44 44 44 43 43 42 42 42 41 41 40 39
9 9 10 11 13 15 15 13 18 21 23 25 27 29 31 33 34 34 35 36 37 37 39 40 41 41 41 41 40 39 39 38 38 39 39 40 41 41 41 40 40 40 39 38 37 36 36 35 35
11 12 13 15 16 19 20 19 21 24 26 28 30 32 34 36 37 38 38 39 39 39 40 41 41 41 40 40 40 39 38 37 36 36 37 37 36 36 36 36 35 35 34 33 32 32 31 31 31

GEFSSGP_500_meanwind_042.txt.gz
Wind_Speed
6 5 4 4 4 5 7 9 10 11 11 10 9 8 8 8 7 6 6 7 8 8 9 9 10 11 12 12 12 13 12 12 12 12 12 12 12 12 13 13 14 15 15 15 15 15 14 13 11
5 4 3 2 2 4 6 8 10 10 9 8 8 8 7 7 6 6 6 7 8 8 8 8 9 10 11 11 11 12 11 11 11 11 11 10 11 11 11 12 12 13 14 13 12 12 12 11 11
7 5 3 1 1 2 4 6 8 8 7 6 6 6 6 6 7 7 6 6 7 7 8 8 9 9 10 10 11 11 11 10 10 10 10 10 10 10 10 11 12 12 12 12 11 10 10 10 9
10 8 6 4 2 2 3 5 6 6 5 5 5 5 6 6 7 8 8 8 8 8 8 9 10 10 10 10 10 10 10 10 10 10 9 9 10 10 10 11 11 11 11 11 10 9 9 8 8
13 12 9 7 6 4 4 3 4 4 4 4 3 4 6 7 8 9 9 9 9 10 10 10 11 11 11 10 10 10 10 10 10 10 10 10 10 10 11 11 11 11 11 10 9 9 9 8 7
16 15 13 11 10 9 8 4 2 1 2 3 3 4 5 6 8 8 9 9 10 11 11 11 11 11 11 11 11 11 11 11 11 11 10 11 11 11 11 11 11 11 11 11 10 10 9 9 9
18 17 16 15 14 13 10 7 5 3 1 1 3 4 5 6 7 8 9 9 9 11 12 12 12 12 12 12 12 12 12 12 12 12 12 12 12 12 12 12 12 12 12 12 11 11 10 10 10
20 20 19 18 16 15 12 10 7 4 2 2 3 4 6 7 8 8 9 9 10 11 12 13 13 13 14 14 14 13 14 14 13 13 13 13 14 14 14 14 14 14 13 13 13 13 12 12 12
22 22 21 19 17 15 13 11 9 6 3 2 3 4 6 8 9 10 11 12 12 13 13 14 14 14 15 15 16 16 17 16 16 16 16 16 16 16 16 16 17 16 16 16 16 15 15 14 14
24 24 22 21 18 16 14 12 11 8 6 5 5 6 7 9 10 12 14 15 16 16 17 17 17 17 17 18 19 19 20 20 20 19 19 19 19 19 19 19 19 19 19 19 19 19 19 18 17
25 25 25 22 20 17 16 14 12 11 11 11 11 11 11 13 15 16 18 18 19 19 20 20 20 21 21 21 22 23 23 23 23 24 23 23 23 22 22 23 23 23 23 23 23 23 23 22 22
25 26 26 23 21 19 18 16 15 14 15 16 16 16 18 18 19 20 20 21 21 21 22 23 24 25 25 25 26 27 27 28 28 28 28 27 27 27 26 26 27 27 27 27 28 28 28 27 26
25 26 26 24 23 21 21 20 18 18 20 21 21 21 23 24 25 24 24 23 23 24 25 26 27 27 28 29 30 31 31 31 31 31 32 32 32 31 31 30 31 31 32 32 32 33 33 32 31
27 26 26 25 26 25 24 23 22 22 24 25 25 26 27 29 28 27 26 25 25 25 26 27 28 29 30 31 32 33 33 34 34 33 34 35 35 35 35 34 34 34 35 36 36 37 37 36 35
29 27 27 28 28 28 27 26 26 27 28 29 30 30 31 31 30 28 27 26 26 27 27 28 29 29 30 32 33 34 33 33 34 35 36 37 37 37 38 37 37 37 38 39 39 40 40 40 40
32 31 30 31 31 31 30 30 30 31 32 32 33 33 33 32 30 29 28 27 28 28 29 29 29 30 31 32 32 33 33 33 34 35 36 37 38 38 38 39 39 40 41 41 41 42 42 42 42
34 34 34 34 34 34 34 34 33 34 35 35 34 34 33 31 29 28 28 29 30 30 31 31 31 31 31 31 32 32 33 34 34 34 36 37 37 38 40 40 40 41 42 42 42 43 43 43 43
34 35 36 36 36 36 36 36 36 36 36 36 34 32 30 28 27 28 30 31 32 32 31 31 31 32 32 32 32 32 33 33 34 35 35 36 37 38 39 40 41 42 43 43 44 43 43 42 41
32 34 34 35 36 36 36 36 36 36 35 34 32 30 27 27 28 30 31 31 32 33 32 32 32 33 33 33 32 32 32 32 33 34 35 36 37 38 39 40 41 42 42 42 43 43 43 42 40
29 31 32 33 33 33 34 34 35 34 33 32 30 29 29 29 31 32 32 31 32 32 31 32 33 33 32 31 31 31 31 30 31 32 34 35 36 37 38 39 40 42 42 41 41 42 41 40 40
25 27 28 29 30 31 32 32 32 32 32 31 31 31 32 32 33 33 32 31 31 31 33 34 34 33 32 31 31 31 31 31 31 31 33 34 36 37 38 39 40 41 41 41 40 40 39 38 37
21 23 25 27 27 28 29 31 31 31 33 33 33 33 34 33 33 32 31 31 31 32 33 34 34 33 32 31 31 32 32 32 33 33 34 35 36 36 38 38 39 39 40 40 39 39 38 37 35
20 21 23 24 25 26 28 31 31 31 33 33 33 33 32 31 30 29 29 29 30 31 33 34 34 32 31 31 31 31 31 32 33 33 34 35 36 37 38 39 40 40 41 41 40 40 38 37 36
18 19 21 21 21 23 26 27 28 29 29 30 31 29 28 27 27 27 27 27 29 31 33 34 33 32 31 30 30 30 30 31 32 33 35 36 36 37 38 39 40 40 41 42 41 41 40 39 38
15 16 17 18 19 21 22 23 23 24 25 25 25 24 24 24 25 25 26 28 30 32 33 33 32 31 31 31 30 30 31 32 33 34 35 36 36 37 37 38 39 40 41 42 42 41 41 40 39
14 15 15 15 16 17 19 19 20 22 23 23 23 24 24 24 25 26 27 28 30 32 32 32 32 31 32 32 32 32 33 34 35 36 37 37 37 37 37 37 38 39 39 40 41 41 41 40 39
13 13 14 14 14 15 16 18 19 20 21 22 23 24 24 24 25 26 27 28 30 31 32 33 33 33 34 35 35 36 36 36 37 37 38 38 38 37 36 36 36 37 38 38 39 39 40 40 39
12 13 14 15 16 16 16 18 18 19 21 22 23 23 25 26 27 29 30 31 32 33 34 35 36 37 37 38 39 39 39 39 39 39 39 39 39 38 37 36 35 34 34 35 36 37 37 38 38
12 13 14 16 18 19 19 20 20 22 24 25 27 27 29 30 31 32 33 35 36 37 39 40 40 41 42 42 42 42 42 42 42 41 41 40 39 39 38 36 34 33 32 32 33 34 34 35 36
13 14 16 19 20 23 25 27 25 26 28 29 31 31 32 34 35 36 38 39 41 43 44 45 46 46 47 46 46 46 45 45 44 43 42 41 40 39 38 36 33 31 30 29 30 31 31 32 32

GEFSSGP_500_meanwind_048.txt.gz
Wind_Speed
6 7 8 9 9 9 7 7 8 9 9 8 8 7 7 7 6 6 6 5 5 5 5 6 6 6 6 7 7 8 8 8 8 7 7 7 7 7 7 7 7 7 7 6 6 6 6 6 6
4 4 5 6 9 4 3 4 6 8 8 8 7 7 7 6 5 5 4 4 4 4 4 5 5 6 6 7 7 7 8 8 7 7 7 7 7 6 6 6 6 6 6 5 5 4 4 4 4
3 2 2 4 4 2 2 2 3 5 6 6 5 5 4 4 4 3 3 3 3 3 4 5 6 6 7 7 8 8 8 8 8 7 7 7 7 6 6 6 6 6 5 5 4 4 3 3 3
5 4 2 0 1 2 3 3 2 1 2 2 3 2 2 2 2 2 2 2 3 3 4 5 6 7 7 7 8 8 8 8 8 8 8 8 8 7 7 7 7 6 6 6 5 5 4 4 3
9 7 5 4 5 4 4 5 5 4 3 1 1 0 0 1 1 2 2 3 4 4 4 5 6 7 7 8 8 9 9 9 9 9 9 9 9 9 8 8 8 8 7 7 7 6 6 6 5
12 11 9 10 9 8 7 6 6 6 5 3 2 2 1 1 2 2 3 4 5 5 6 6 7 7 8 9 9 9 10 10 10 11 11 11 11 11 10 10 10 10 10 10 9 9 9 8 8
16 15 15 14 13 11 9 8 8 8 7 5 4 3 3 3 3 4 5 5 6 7 7 8 9 9 10 11 11 12 12 12 13 13 13 13 13 13 14 13 13 13 13 13 12 12 12 11 11
19 18 17 17 16 14 11 9 8 8 7 5 4 4 4 4 5 6 7 8 9 10 11 12 12 13 14 14 15 15 15 16 16 16 16 16 16 16 17 17 17 16 16 16 16 15 15 15 14
21 20 19 20 18 16 13 10 9 8 8 6 6 5 5 7 7 9 11 12 13 14 15 16 17 18 18 19 18 18 19 19 19 20 20 21 20 20 20 20 20 20 19 19 19 19 19 19 19
22 22 23 22 20 18 15 12 10 9 9 8 8 8 8 9 11 12 14 16 17 18 19 20 20 21 22 22 22 22 22 23 23 24 24 24 24 24 24 24 24 24 24 23 23 23 23 23 23
24 24 24 22 22 19 17 15 13 11 11 11 10 11 12 13 15 16 18 19 20 21 22 23 23 24 24 24 24 24 25 25 26 27 27 27 28 28 29 29 29 28 28 28 28 27 27 27 27
25 25 25 24 23 21 20 18 16 14 15 14 13 14 15 17 18 20 21 22 23 24 25 25 26 26 26 26 26 26 26 27 27 28 29 30 31 31 32 32 32 32 32 32 32 32 32 31 31
27 27 26 25 24 23 22 21 20 19 18 17 17 17 18 20 22 24 25 26 27 28 28 28 28 28 27 26 26 26 26 27 28 29 29 30 31 31 33 33 34 35 35 35 36 36 36 36 35
29 27 27 27 27 25 24 24 23 23 21 20 21 21 22 24 26 27 29 30 30 30 30 30 29 28 27 26 26 26 27 28 28 29 30 30 29 31 32 34 34 35 36 36 37 38 39 38 38
29 28 28 29 29 28 26 26 27 25 25 25 25 25 26 28 29 30 31 32 32 32 31 30 29 28 27 27 26 26 26 27 27 28 28 28 29 29 30 32 33 35 35 36 37 38 39 40 40
30 29 28 31 31 30 28 28 32 28 28 28 28 29 30 31 31 32 33 33 34 33 32 31 30 29 28 27 26 27 27 27 27 27 27 26 26 27 28 29 31 32 34 35 36 37 38 40 41
29 29 30 32 32 31 31 33 35 31 31 31 32 32 33 33 33 33 34 34 34 34 33 32 31 30 28 28 28 28 27 26 26 25 24 24 24 25 25 26 28 30 32 33 35 36 37 39 40
26 28 30 32 34 33 33 35 36 35 35 35 34 34 34 33 33 33 34 34 34 34 34 34 33 31 30 29 28 27 26 25 24 23 22 22 22 22 23 24 26 28 30 32 34 35 37 38 39
26 27 28 33 34 34 35 36 37 37 37 36 35 34 33 32 32 33 33 34 34 35 35 35 34 33 32 29 28 26 25 24 22 21 20 20 21 22 23 24 25 27 29 31 33 35 37 38 39
20 22 24 29 32 32 34 35 36 36 35 34 33 31 31 30 31 32 33 34 35 36 37 37 36 34 32 29 26 25 24 22 21 20 19 19 20 21 22 23 25 27 29 31 33 35 37 38 39
14 16 19 23 26 27 29 28 31 32 32 31 31 31 30 31 32 33 35 36 37 37 38 37 35 34 32 28 27 25 23 22 21 20 21 21 21 22 22 24 25 27 29 31 33 35 36 37 38
10 15 17 19 19 19 24 19 25 29 28 30 30 31 31 32 34 35 35 36 37 37 36 35 34 33 32 30 28 26 24 24 23 23 23 23 23 23 24 25 26 27 29 31 33 35 36 37 38
12 13 15 16 17 17 19 17 20 27 26 28 29 30 31 31 32 33 34 34 34 33 33 34 34 34 33 31 30 28 28 27 27 26 26 26 26 26 26 26 27 28 30 31 33 34 36 37 38
12 12 13 13 13 13 17 15 18 24 23 23 24 25 25 26 26 28 29 30 31 32 33 34 35 35 34 33 32 32 32 31 30 30 29 29 28 28 27 27 28 30 31 32 33 34 35 36 37
11 10 10 10 10 11 16 14 18 19 18 19 20 21 21 23 24 26 28 30 32 33 34 36 37 37 36 35 35 35 35 34 34 33 32 31 30 30 29 29 30 31 32 33 34 34 34 35 36
10 10 10 11 11 12 16 16 17 16 17 18 19 20 22 24 25 27 30 31 33 35 37 38 38 38 38 37 37 37 37 37 36 36 35 34 32 32 31 31 31 32 33 33 34 34 34 34 34
10 9 11 12 12 13 12 18 18 17 18 20 21 23 24 26 28 30 31 33 35 37 38 39 40 41 41 41 40 39 39 38 38 37 37 36 35 34 33 33 33 33 34 34 34 33 33 33 33
9 10 11 11 12 12 14 17 21 19 21 23 25 28 30 31 33 35 36 37 39 41 42 42 43 44 44 44 44 43 42 41 41 40 39 38 37 36 36 34 34 34 34 34 34 33 33 33 32
11 11 12 13 15 16 16 20 23 24 26 28 30 33 35 37 39 40 41 42 43 44 45 46 47 48 48 48 48 47 47 46 45 44 43 41 40 38 37 37 36 36 36 35 35 34 33 33 32
13 14 15 17 19 21 22 27 25 28 30 32 34 36 38 40 42 44 45 46 47 48 49 50 51 51 52 52 53 53 53 52 50 48 47 46 45 43 41 40 39 38 37 36 36 34 33 33 32

GEFSSGP_500_meanwind_054.txt.gz
Wind_Speed
14 14 14 13 14 16 7 1 1 2 2 2 2 3 3 1 0 1 1 1 1 1 2 2 3 4 5 6 6 7 7 8 8 9 9 9 9 9 9 9 8 8 8 8 7 7 7 7 7
11 11 10 10 14 11 2 3 3 2 1 2 3 3 2 2 2 2 1 1 2 2 2 3 3 4 5 5 6 7 7 8 8 9 9 10 10 9 9 9 9 8 8 7 7 7 7 6 6
7 7 7 9 11 5 3 5 5 4 3 3 4 3 3 3 3 3 3 3 3 4 4 5 5 6 6 7 7 8 8 9 9 9 10 10 10 11 10 10 10 9 9 8 8 7 7 7 6
3 5 5 8 5 2 4 6 5 5 5 5 6 5 5 5 5 5 4 4 4 5 5 7 8 8 8 8 9 10 10 10 11 11 11 11 11 11 12 11 11 11 10 10 9 9 8 8 8
3 3 3 5 1 1 5 5 6 7 7 8 9 8 8 7 7 6 6 6 6 6 7 8 9 9 10 10 11 12 12 13 13 13 14 13 13 13 13 13 13 13 13 12 11 11 10 10 10
6 4 3 9 9 3 6 8 7 9 8 8 10 10 10 9 8 8 7 7 7 7 8 9 10 11 11 12 13 14 15 15 15 16 16 16 15 15 15 15 15 15 15 15 14 13 13 12 12
9 7 4 8 12 8 8 11 11 11 10 11 11 11 11 10 9 8 8 8 8 9 10 11 11 12 13 14 15 16 17 17 17 18 18 18 18 18 18 18 18 18 17 17 16 16 15 15 15
12 10 6 6 11 12 12 12 13 14 15 12 12 15 13 11 8 8 9 10 10 11 12 13 13 14 15 16 17 18 18 19 20 20 21 21 21 21 21 21 21 20 20 19 19 19 18 18 18
14 12 7 6 12 12 12 11 13 15 16 16 16 17 14 11 10 10 11 12 13 14 15 15 15 16 17 18 19 20 21 21 21 22 23 23 23 24 24 24 24 23 23 22 22 21 21 21 21
17 15 10 11 14 12 12 11 13 17 16 16 17 16 12 11 12 12 13 14 15 16 17 17 18 19 20 21 21 22 22 23 23 24 25 25 26 26 26 26 26 26 26 25 25 24 24 24 24
19 19 17 18 18 20 18 14 15 17 20 22 22 17 10 10 14 15 16 16 17 18 19 20 21 22 23 23 23 23 24 24 25 25 26 26 27 27 28 28 28 28 28 28 27 27 27 27 27
21 22 23 25 24 25 23 20 18 19 24 27 26 22 13 13 17 18 19 19 20 21 22 23 24 26 26 26 25 25 25 25 26 26 26 27 28 28 29 29 29 29 29 29 29 28 28 28 27
20 23 25 26 27 26 24 22 22 22 24 28 27 26 22 20 22 22 22 23 23 25 26 27 28 28 28 28 27 27 27 27 27 27 27 28 28 28 29 30 30 29 29 29 28 28 28 28 28
21 23 24 25 26 25 25 24 23 23 25 28 30 28 25 25 26 26 26 26 27 28 29 30 31 31 30 30 29 28 28 28 28 29 28 28 29 29 28 28 28 28 28 27 26 26 27 26 26
21 23 24 25 24 23 23 24 23 22 27 29 30 30 30 29 29 29 30 30 31 32 33 34 33 33 32 31 30 29 29 28 28 29 29 29 28 27 27 26 26 26 25 23 22 23 24 24 25
18 20 21 19 19 19 23 24 21 24 29 30 31 31 33 32 31 32 33 34 35 36 36 36 36 35 33 32 31 30 30 30 29 29 29 28 27 26 25 24 24 23 22 21 20 20 21 22 23
12 15 15 14 15 20 22 22 21 27 30 32 33 32 33 34 33 34 36 37 38 38 38 38 38 37 34 33 33 31 30 29 29 29 28 27 26 25 25 23 22 21 20 20 20 21 21 22 23
10 12 12 12 16 22 22 21 22 28 31 32 34 33 34 36 36 37 38 38 39 39 39 38 38 37 36 35 34 33 31 29 29 29 28 27 26 25 24 23 21 21 20 20 20 21 21 22 24
15 13 13 15 22 26 24 23 23 29 33 33 35 36 37 38 39 39 38 37 40 40 39 38 37 37 37 36 34 34 33 31 30 30 27 26 25 24 23 22 21 21 21 20 20 21 22 23 24
10 12 13 15 20 25 28 26 24 29 33 34 36 33 35 39 38 38 38 38 38 39 38 37 38 39 38 37 36 35 34 33 32 30 28 26 25 24 23 23 22 22 21 21 21 21 22 23 25
7 9 13 16 19 19 19 19 19 25 30 31 31 33 32 33 35 36 35 35 37 37 36 37 39 39 38 37 36 35 34 33 32 29 27 26 25 25 24 24 24 23 23 22 23 23 23 24 26
8 13 15 16 17 18 17 19 20 25 30 31 30 27 26 29 31 32 33 35 36 36 37 39 38 38 37 37 37 34 33 33 33 30 28 27 27 26 26 26 26 26 26 25 25 25 25 26 27
12 14 14 13 15 14 15 18 20 25 28 29 26 26 28 28 31 32 33 33 34 36 37 37 37 36 37 36 36 35 34 34 32 31 29 28 28 28 28 28 29 29 29 29 28 28 28 28 28
10 9 8 11 15 17 18 18 21 25 25 26 28 30 32 31 31 30 31 32 33 34 35 35 35 36 37 38 37 36 36 35 35 33 32 30 30 30 31 31 32 32 32 32 32 31 31 31 30
11 10 12 16 20 19 14 12 18 21 23 25 28 29 30 30 30 30 31 32 33 34 36 37 38 38 39 40 39 39 38 38 38 37 36 34 34 34 35 34 34 35 35 35 35 34 34 34 33
10 9 12 16 17 21 20 16 22 20 20 23 25 26 29 30 31 32 33 34 35 37 39 40 42 43 43 44 44 44 43 42 42 41 40 39 38 38 39 38 37 37 37 37 37 37 37 36 35
9 7 9 14 14 13 16 25 25 24 23 23 24 29 32 34 35 37 39 40 41 43 44 46 47 48 49 49 50 50 50 49 48 47 46 45 44 43 42 42 41 41 41 40 40 39 38 38 36
12 12 13 14 15 15 16 27 33 33 32 29 31 33 36 38 40 42 43 44 45 47 49 50 52 53 54 55 56 56 56 56 55 54 53 52 50 48 47 46 45 44 43 43 42 41 40 39 38
12 13 15 17 18 20 22 27 32 34 33 34 37 39 40 43 45 47 48 49 50 51 53 54 55 56 58 59 60 60 61 61 61 60 59 58 56 54 53 51 50 48 47 45 44 43 41 40 39
12 16 19 20 21 21 23 30 32 34 36 38 41 43 46 48 49 51 52 53 54 55 56 57 58 59 60 61 62 63 64 65 65 65 64 63 62 60 59 57 55 53 51 48 46 45 43 42 40